KC1UIX-13 Weather Reports


Display with metric or nautical units.
time (UTC)temp
F
wind
direction
speed
MPH
gust
MPH
rain 1hr
in
rain 24hr
in
rain mn
in
humidity
%
barometer
mb
20260905144039 67 353 0.0 2.0 0.00 0.08 0.00 80 1010.8
20260905143018 67 313 0.0 2.0 0.00 0.08 0.00 80 1010.6
20260905142018 67 359 0.0 2.0 0.00 0.08 0.00 79 1010.5
20260905141019 67 12 2.0 5.0 0.00 0.08 0.00 78 1010.4
20260905140039 67 13 1.0 5.0 0.00 0.08 0.00 79 1010.3
20260905135019 66 3 1.0 4.0 0.00 0.08 0.00 80 1010.2
20260905134059 66 9 1.0 4.0 0.00 0.08 0.00 81 1010.0
20260905133019 65 9 2.0 5.0 0.00 0.08 0.00 81 1009.9
20260905132017 65 360 2.0 6.0 0.00 0.08 0.00 82 1009.8
20260905131020 65 7 2.0 6.0 0.00 0.08 0.00 83 1009.7
20260905130020 64 6 2.0 4.0 0.00 0.08 0.00 84 1009.6
20260905125020 64 1 2.0 5.0 0.00 0.08 0.00 84 1009.6
20260905124020 64 3 2.0 5.0 0.00 0.08 0.00 85 1009.5
20260905123017 63 0 1.0 4.0 0.00 0.08 0.00 87 1009.4
20260905122018 63 3 2.0 5.0 0.00 0.08 0.00 88 1009.3
20260905121021 62 3 2.0 4.0 0.00 0.08 0.00 89 1009.3
20260905120020 61 5 1.0 4.0 0.00 0.08 0.00 91 1009.3
20260905115018 60 2 1.0 3.0 0.00 0.08 0.00 92 1009.3
20260905114018 60 3 1.0 3.0 0.00 0.08 0.00 93 1009.3
20260905113019 59 5 2.0 4.0 0.00 0.08 0.00 93 1009.2
20260905112018 58 8 1.0 3.0 0.00 0.08 0.00 94 1009.2
20260905111041 57 354 1.0 3.0 0.00 0.08 0.00 93 1009.0
20260905110019 57 328 0.0 2.0 0.00 0.08 0.00 93 1008.9
20260905105039 57 252 0.0 0.0 0.00 0.08 0.00 93 1008.8
20260905104019 57 357 0.0 2.0 0.00 0.08 0.00 93 1008.8
20260905103019 57 9 0.0 1.0 0.00 0.08 0.00 93 1008.8
20260905102017 57 14 0.0 2.0 0.00 0.08 0.00 92 1008.7
20260905101019 58 4 1.0 2.0 0.00 0.08 0.00 93 1008.6
20260905100020 57 2 1.0 2.0 0.00 0.08 0.00 92 1008.5
20260905095020 57 355 0.0 2.0 0.00 0.08 0.00 92 1008.3
20260905094017 58 2 0.0 2.0 0.00 0.08 0.00 92 1008.2
20260905093017 58 12 0.0 2.0 0.00 0.08 0.00 91 1008.0
20260905092101 58 13 1.0 2.0 0.00 0.08 0.00 91 1007.9
20260905091021 58 11 1.0 2.0 0.00 0.08 0.00 90 1008.0
20260905090058 59 16 1.0 2.0 0.00 0.08 0.00 90 1007.9
20260905085018 59 1 1.0 3.0 0.00 0.08 0.00 90 1007.9
20260905084018 59 11 0.0 2.0 0.00 0.08 0.00 89 1007.9
20260905083018 59 356 1.0 3.0 0.00 0.08 0.00 89 1007.8
20260905082200 59 331 1.0 3.0 0.00 0.08 0.00 89 1007.8
20260905081019 59 1 1.0 3.0 0.00 0.08 0.00 89 1007.9
20260905080019 60 315 1.0 3.0 0.00 0.08 0.00 89 1007.9
20260905075019 60 358 0.0 2.0 0.00 0.08 0.00 88 1007.8
20260905074019 60 327 1.0 2.0 0.00 0.08 0.00 88 1007.9
20260905073019 60 354 1.0 3.0 0.00 0.08 0.00 87 1007.9
20260905072019 61 322 1.0 3.0 0.00 0.08 0.00 87 1007.8
20260905071020 61 2 1.0 3.0 0.00 0.08 0.00 86 1007.9
20260905070020 61 340 1.0 3.0 0.00 0.08 0.00 86 1008.0
20260905065038 61 325 1.0 3.0 0.00 0.08 0.00 86 1008.0
20260905064017 61 334 1.0 4.0 0.00 0.08 0.00 86 1008.0
20260905063020 61 347 1.0 4.0 0.00 0.08 0.00 86 1008.1
20260905062101 61 332 1.0 3.0 0.00 0.08 0.00 85 1008.1
20260905061018 61 341 2.0 5.0 0.00 0.08 0.00 86 1008.0
20260905060018 61 313 2.0 4.0 0.00 0.08 0.00 87 1008.1
20260905055038 61 329 1.0 3.0 0.00 0.08 0.00 87 1008.1
20260905054018 61 332 1.0 4.0 0.00 0.08 0.00 87 1008.1
20260905053022 60 323 1.0 4.0 0.00 0.08 0.00 89 1008.1
20260905052038 60 332 1.0 4.0 0.00 0.08 0.00 90 1008.1
20260905051022 61 357 1.0 2.0 0.00 0.08 0.00 88 1008.2
20260905050039 61 10 1.0 4.0 0.00 0.08 0.00 89 1008.2
20260905045039 60 331 2.0 4.0 0.00 0.08 0.00 91 1008.2
20260905044019 61 340 1.0 2.0 0.00 0.08 0.00 91 1008.2
20260905043019 61 11 0.0 3.0 0.00 0.08 0.00 91 1008.3
20260905042019 61 0 1.0 3.0 0.00 0.08 0.00 91 1008.3
20260905041019 61 29 0.0 2.0 0.00 0.08 0.00 89 1008.4
20260905040019 62 359 0.0 0.0 0.00 0.08 0.00 87 1008.5
20260905035016 63 19 0.0 2.0 0.00 0.08 0.08 85 1008.4
20260905034040 63 349 0.0 2.0 0.00 0.08 0.08 84 1008.4
20260905033020 64 287 0.0 2.0 0.00 0.08 0.08 83 1008.3
20260905032020 64 342 1.0 3.0 0.00 0.08 0.08 83 1008.2
20260905031018 64 314 1.0 3.0 0.00 0.08 0.08 83 1008.3
20260905030018 64 323 1.0 3.0 0.00 0.08 0.08 83 1008.3
20260905025021 64 343 1.0 3.0 0.00 0.08 0.08 86 1008.3
20260905024018 64 331 1.0 2.0 0.00 0.08 0.08 88 1008.4
20260905023039 64 350 1.0 2.0 0.00 0.08 0.08 88 1008.5
20260905022019 64 356 1.0 3.0 0.00 0.08 0.08 88 1008.4
20260905021018 65 2 1.0 3.0 0.00 0.08 0.08 89 1008.5
20260905020018 64 10 1.0 3.0 0.00 0.08 0.08 90 1008.5
20260905015019 64 334 1.0 4.0 0.00 0.08 0.08 92 1008.5
20260905014019 65 343 1.0 2.0 0.00 0.08 0.08 93 1008.6
20260905013019 65 12 1.0 2.0 0.00 0.08 0.08 93 1008.6
20260905012019 65 352 1.0 2.0 0.00 0.08 0.08 93 1008.6
20260905011017 65 319 0.0 2.0 0.00 0.08 0.08 93 1008.6
20260905010019 66 30 0.0 1.0 0.00 0.08 0.08 93 1008.6
20260905005019 66 24 0.0 1.0 0.00 0.08 0.08 92 1008.6
20260905004020 66 27 0.0 1.0 0.00 0.08 0.08 92 1008.7
20260905003040 66 10 0.0 1.0 0.00 0.08 0.08 92 1008.7
20260905002017 66 342 0.0 1.0 0.00 0.08 0.08 91 1008.7
20260905001017 67 238 0.0 0.0 0.00 0.08 0.08 91 1008.7
20260905000020 67 328 0.0 1.0 0.00 0.08 0.08 91 1008.6
20260904235021 67 217 0.0 1.0 0.00 0.08 0.08 91 1008.4
20260904234018 67 228 0.0 2.0 0.00 0.08 0.08 90 1008.3
20260904233038 67 266 0.0 1.0 0.00 0.08 0.08 89 1008.3
20260904232038 67 225 0.0 1.0 0.00 0.08 0.08 88 1008.2
20260904231022 68 235 0.0 1.0 0.00 0.08 0.08 87 1008.3
20260904230039 69 273 0.0 0.0 0.00 0.08 0.08 86 1008.3
20260904225019 70 243 0.0 2.0 0.00 0.08 0.08 84 1008.4
20260904224039 71 250 0.0 1.0 0.00 0.08 0.08 84 1008.2
20260904223059 72 278 1.0 2.0 0.00 0.08 0.08 83 1008.3
20260904222019 72 301 0.0 2.0 0.00 0.08 0.08 84 1008.3
20260904221020 72 239 0.0 2.0 0.00 0.08 0.08 84 1008.4
20260904220019 72 255 0.0 2.0 0.08 0.08 0.08 84 1008.3
20260904215019 71 230 0.0 2.0 0.08 0.08 0.08 86 1008.3
20260904214020 71 233 0.0 2.0 0.08 0.08 0.08 86 1008.3
20260904213018 70 253 1.0 4.0 0.08 0.08 0.08 88 1008.3
20260904212018 69 264 1.0 2.0 0.08 0.08 0.08 89 1008.3
20260904211020 68 193 0.0 1.0 0.08 0.08 0.08 89 1008.5
20260904210020 68 307 1.0 3.0 0.00 0.00 0.00 88 1008.3
20260904205101 68 245 2.0 6.0 0.00 0.00 0.00 88 1008.0
20260904204018 68 244 1.0 4.0 0.00 0.00 0.00 88 1007.9
20260904203018 68 248 2.0 5.0 0.00 0.00 0.00 88 1008.1
20260904202018 68 248 3.0 6.0 0.00 0.00 0.00 88 1008.1
20260904201019 68 246 2.0 5.0 0.00 0.00 0.00 88 1008.2
20260904200019 68 250 2.0 5.0 0.00 0.00 0.00 87 1008.2
20260904195039 69 240 2.0 5.0 0.00 0.00 0.00 85 1008.2
20260904194019 71 245 2.0 6.0 0.00 0.00 0.00 82 1008.1
20260904193020 72 235 2.0 7.0 0.00 0.00 0.00 79 1008.2
20260904192019 72 246 1.0 7.0 0.00 0.00 0.00 80 1008.3
20260904191019 71 247 2.0 7.0 0.00 0.00 0.00 82 1008.5
20260904190020 72 247 3.0 8.0 0.00 0.00 0.00 81 1008.8
20260904185020 73 243 2.0 7.0 0.00 0.00 0.00 78 1008.7
20260904184017 71 236 2.0 7.0 0.00 0.00 0.00 81 1008.8
20260904183017 70 245 3.0 6.0 0.00 0.00 0.00 84 1008.7
20260904182020 70 223 2.0 7.0 0.00 0.00 0.00 84 1008.7
20260904181021 71 250 2.0 6.0 0.00 0.00 0.00 82 1008.8
20260904180040 71 219 0.0 2.0 0.00 0.00 0.00 81 1008.7
20260904175017 71 240 0.0 2.0 0.00 0.00 0.00 81 1008.7
20260904174018 71 228 1.0 4.0 0.00 0.00 0.00 81 1008.7
20260904173018 69 205 2.0 5.0 0.00 0.00 0.00 84 1008.9
20260904172019 69 217 1.0 4.0 0.00 0.00 0.00 84 1008.9
20260904171019 70 214 0.0 3.0 0.00 0.00 0.00 83 1009.0
20260904170019 71 204 1.0 4.0 0.00 0.00 0.00 82 1009.1
20260904165018 73 219 1.0 3.0 0.00 0.00 0.00 78 1009.1
20260904164019 74 266 1.0 3.0 0.00 0.00 0.00 76 1009.1
20260904163039 74 271 0.0 2.0 0.00 0.00 0.00 78 1009.3
20260904162026 73 203 2.0 5.0 0.00 0.00 0.00 78 1009.5
20260904161016 74 212 2.0 5.0 0.00 0.00 0.00 78 1009.6
20260904160020 74 216 1.0 6.0 0.00 0.00 0.00 78 1009.6
20260904155020 73 215 1.0 3.0 0.00 0.00 0.00 80 1009.6
20260904154020 72 211 1.0 4.0 0.00 0.00 0.00 81 1009.6
20260904153020 72 220 1.0 3.0 0.00 0.00 0.00 81 1009.5
20260904152017 72 228 1.0 3.0 0.00 0.00 0.00 82 1009.5
20260904151037 71 225 1.0 4.0 0.00 0.00 0.00 82 1009.6
20260904150017 71 247 1.0 5.0 0.00 0.00 0.00 83 1009.6
20260904145020 70 236 1.0 4.0 0.00 0.00 0.00 84 1009.6